星链-5381 (STARLINK-5381 )

导读

STARLINK-5381是美国太空探索技术公司SpaceX星链互联网卫星星座的一员,于2022年12月28日发射升空。星链项目旨在构建全球卫星互联网,该卫星入轨后为偏远地区、海洋、空中等场景提供低延迟宽带网络服务,也是美国大规模低轨星座部署进程中的组成单元。

基本信息
目录编号:
54828
目录名称:
STARLINK-5381
国际标识:
2022-177J
轨道中心:
EARTH
卫星名称:
星链-5381
卫星全名:
星链-5381 (STARLINK-5381 )
卫星状态:
在轨 (已飞行1267 天)
发射日期:
2022-12-28 UTC
国别 :
美国 (US)
星等 :
--
轨道信息
数据来源 国际轨道数据
星历时间: 2026-06-16T23:18:18+0800
18小时前
查看轨道信息
半长轴: 6861.184km
偏心率: 0.0001713
轨道倾角: 43.002°
近地点辐角 272.252°
升交点赤经 297.470°
平近点角 87.814°
近地点: 481.871km
远地点: 484.223km
周期: 94.267分钟
每日圈数: 15.27581
详细信息
固有亮度:
5
最大亮度:
2.5
卫星平台:
Starlink v1.5
覆盖范围:
全球
运营商:
太空探索技术公司
运营商所在国:
美国
制造商(研发单位):
太空探索技术公司
制造商所在国:
美国
使用方式:
暂无
卫星简介
星链(Starlink)计划是由太空探索技术公司(SpaceX)提出的一个巨型低轨卫星互联网星座项目,计划在2019年至2024年间在太空搭建由约1.2万颗卫星组成的“星链”网络,其中1584颗将部署在地球上空550千米处的近地轨道,并从2020年开始工作。该卫星仍在工作。
2D轨道图
3D轨道图
轨道高度分析图
轨道倾角分析图
轨道综合分析图
查看轨道综合分析图